Wind_Speed
9 10 10 10 9 9 8 6 7 7 7 6 7 7 7 7 6 6 6 7 8 10 10 14 21 23 21 18 16 14 13 12 10 9 8 8 7 5 2 2 7 11 11
6 8 9 9 9 10 9 7 6 7 7 6 6 7 7 7 6 5 6 7 8 8 6 9 17 24 23 20 18 16 16 14 12 11 10 9 8 6 3 1 3 8 11
4 6 8 9 10 11 10 8 6 7 6 7 7 7 7 7 6 5 6 7 6 6 5 3 13 20 22 20 18 18 19 17 14 12 11 10 9 8 6 4 3 5 8
2 4 7 9 10 11 10 8 8 7 6 7 8 8 7 6 5 5 6 6 3 4 4 2 8 15 18 18 17 17 19 21 16 13 12 10 9 8 7 6 5 5 7
3 3 6 9 11 11 10 9 8 7 6 7 9 9 8 6 5 5 5 4 2 1 1 2 5 9 11 12 12 11 14 20 19 15 12 10 9 7 7 6 6 7 8
2 4 6 9 11 11 10 9 8 7 7 8 9 11 10 7 6 6 5 4 3 3 3 2 4 5 7 8 8 8 9 12 16 14 11 9 8 7 7 7 7 8 9
2 3 5 9 11 12 11 9 8 8 8 9 10 11 10 9 7 6 6 5 5 6 6 5 5 6 7 7 8 9 10 11 11 10 7 7 7 9 10 10 9 10 10
1 3 6 8 10 11 11 10 9 8 9 10 10 11 11 10 9 8 8 8 8 8 9 9 8 7 7 8 8 10 12 12 11 9 8 7 6 8 10 11 12 11 10
2 3 5 7 9 11 10 10 9 9 10 11 11 12 11 10 9 9 10 10 10 10 10 11 12 10 9 10 10 12 13 13 13 11 10 8 7 7 8 11 13 12 11
2 2 5 7 8 10 11 10 9 10 11 12 12 13 12 11 10 10 11 11 11 11 11 12 13 14 13 12 13 14 15 15 15 13 11 10 8 8 8 10 12 12 11
1 2 4 6 8 10 12 12 11 11 13 14 14 14 13 12 11 11 12 12 11 10 10 11 12 14 15 15 16 16 17 17 17 15 13 12 11 10 9 9 12 13 13
1 3 4 6 8 11 14 15 14 13 14 15 15 15 14 12 12 12 13 13 11 9 9 9 11 13 14 16 17 18 19 19 18 16 14 13 13 12 11 11 13 15 14
3 4 6 7 9 11 14 16 15 14 15 16 15 16 15 13 12 12 13 13 11 9 10 11 11 12 13 15 17 19 20 20 19 18 16 15 14 14 14 15 16 16 15
6 7 8 9 10 11 13 15 15 15 15 15 15 16 14 12 11 12 13 13 11 10 10 11 11 12 13 15 18 20 22 22 21 19 18 17 17 16 16 17 19 17 16
10 11 11 12 13 13 14 16 16 15 14 15 16 14 13 11 11 12 13 13 12 11 11 11 11 10 11 13 16 19 21 23 22 20 18 17 17 16 16 18 20 19 17
15 14 15 15 15 16 16 18 18 17 16 15 15 13 12 10 10 12 13 13 12 12 11 11 11 9 10 11 13 15 18 21 22 20 18 17 15 15 16 17 19 20 20
18 18 17 18 18 19 19 20 20 19 17 16 15 13 12 10 10 12 14 14 13 12 11 11 11 10 10 10 11 13 16 19 21 21 20 17 15 14 15 16 17 19 20
20 20 19 20 21 22 22 21 21 20 19 17 16 14 13 11 10 11 14 14 14 13 12 12 11 10 11 9 9 10 13 16 19 19 19 18 16 15 16 16 17 18 19
22 22 21 21 22 23 23 22 22 22 21 18 17 16 15 13 11 10 12 14 14 14 13 12 12 11 12 11 10 9 9 13 16 17 17 18 18 18 18 17 17 17 18
22 22 22 23 24 25 24 22 21 22 22 19 18 18 18 17 13 11 12 13 14 14 14 13 13 13 13 13 11 8 6 9 12 14 15 16 18 20 20 19 18 17 17
21 22 23 24 25 26 24 22 21 22 22 21 21 21 20 19 18 16 14 13 14 15 15 15 15 15 15 14 13 9 6 6 8 10 12 15 17 19 20 19 18 18 17
23 24 24 24 25 25 25 24 24 24 25 25 24 23 22 22 21 20 17 15 14 15 16 17 17 16 16 15 14 12 8 6 6 7 10 13 15 17 18 19 19 18 17
24 26 26 25 26 26 27 27 27 27 27 28 28 27 25 25 24 21 20 18 16 17 18 19 20 19 18 18 16 14 12 10 8 7 8 10 12 13 15 16 17 17 17
25 26 26 27 27 28 28 29 29 29 29 30 29 29 29 28 26 24 20 20 21 21 21 22 23 23 22 20 19 17 15 13 11 10 9 9 10 11 13 14 15 16 16
27 28 27 28 29 29 29 29 30 31 31 31 30 30 31 29 28 25 23 23 23 24 25 25 26 26 25 24 23 21 18 16 15 13 12 11 11 11 12 12 13 14 14
28 28 28 28 28 27 28 29 30 30 30 29 29 29 29 28 27 26 25 25 25 26 27 28 28 29 28 28 26 24 22 20 18 16 15 15 15 14 14 14 13 13 14
Wind_Direction
73 68 56 47 39 33 28 19 4 350 339 337 347 350 350 346 333 318 310 308 309 306 282 240 226 202 192 193 190 187 188 189 188 185 183 186 189 190 194 242 222 218 219
73 62 47 38 28 23 22 15 1 344 327 319 333 343 348 346 338 326 316 312 316 323 308 238 219 198 191 195 199 199 198 197 195 193 192 191 196 202 205 188 197 203 207
54 44 29 21 16 13 12 11 3 348 326 309 318 329 338 342 343 336 323 317 319 339 8 193 198 196 195 202 210 211 206 202 198 196 194 194 199 203 200 194 198 195 201
354 14 7 3 5 5 3 9 10 357 330 307 306 317 327 333 342 346 336 328 330 357 31 125 190 199 200 206 212 216 213 205 199 193 191 191 192 197 204 203 203 208 211
297 325 339 349 356 357 355 3 12 5 340 313 306 310 319 321 321 331 335 332 317 320 33 112 178 192 196 201 205 208 206 203 192 187 187 189 190 193 202 207 212 220 225
300 313 326 346 357 356 350 352 3 2 349 324 309 309 313 312 307 312 314 306 266 243 232 191 159 166 168 164 162 157 159 171 171 168 177 192 202 211 218 224 231 236 230
287 315 334 350 356 354 348 342 344 348 345 332 316 310 308 305 297 297 301 286 254 234 226 218 199 181 172 163 156 155 156 164 166 167 186 216 228 238 238 237 240 239 232
245 335 343 349 357 356 348 340 332 333 336 335 325 313 305 301 291 286 289 282 260 239 226 222 217 203 188 180 175 173 176 179 185 194 216 238 249 252 241 235 235 235 227
220 331 343 354 3 3 354 343 329 322 328 334 329 320 306 297 286 276 277 278 268 249 234 227 224 218 206 196 192 192 193 196 202 214 228 244 257 260 245 232 231 226 218
215 320 341 359 2 2 357 345 328 314 316 326 330 324 308 295 285 273 273 275 270 256 240 231 229 225 219 211 206 205 206 208 215 225 235 246 256 258 247 231 223 212 204
219 347 344 349 349 353 356 350 331 311 306 311 321 324 311 294 282 272 271 275 271 257 239 230 228 226 225 222 219 216 215 218 225 233 240 246 252 253 243 231 213 199 193
252 341 345 340 344 353 358 354 339 317 306 304 310 318 313 295 279 268 267 271 270 252 231 222 222 224 226 226 224 221 221 225 230 236 242 248 252 251 241 228 208 196 189
273 303 322 328 335 347 355 353 345 328 311 303 303 311 310 297 280 264 260 265 265 247 230 220 218 223 228 228 226 225 225 227 231 236 244 250 253 251 240 225 210 199 194
275 286 298 312 321 334 345 349 344 331 313 300 300 307 306 295 280 263 254 258 258 247 234 226 225 231 235 235 233 231 229 229 232 236 242 248 251 249 239 223 214 206 202
275 280 290 303 312 321 332 340 342 336 317 300 299 304 304 294 277 261 251 251 251 246 235 230 230 234 237 240 238 233 230 231 232 233 237 243 245 244 234 222 216 212 209
281 284 288 298 307 313 322 330 335 334 319 301 295 298 300 295 276 259 248 245 246 246 239 232 231 234 235 238 239 235 231 231 231 230 231 235 237 233 226 219 216 216 215
284 288 292 297 305 309 315 323 328 328 317 297 286 291 294 294 281 259 247 241 240 243 241 235 232 234 231 232 237 236 233 231 228 226 227 229 228 224 220 219 218 217 217
283 287 291 296 301 306 310 316 319 320 314 293 277 281 288 287 282 264 249 243 239 240 242 238 231 231 228 229 238 244 240 231 224 223 225 225 220 218 220 221 219 216 215
285 286 290 293 295 299 303 307 312 313 310 292 276 277 280 277 273 266 251 242 239 239 240 237 227 227 228 230 237 250 244 227 220 219 222 223 218 216 216 217 215 212 213
287 287 290 290 291 294 296 300 305 306 303 292 278 277 280 274 262 255 250 242 237 238 238 236 230 229 231 230 235 246 234 214 212 212 215 217 215 212 212 213 212 209 210
287 287 290 288 290 293 294 295 297 297 294 287 278 277 279 274 263 252 244 241 238 239 240 239 236 233 232 230 231 234 223 206 206 209 213 214 213 211 210 210 209 209 209
284 285 288 288 289 292 294 295 294 292 288 282 276 274 273 270 265 259 248 241 245 247 245 242 240 235 231 229 225 224 226 222 215 214 217 216 215 215 215 215 215 215 216
283 286 291 291 291 292 293 292 291 289 286 280 275 272 270 268 264 264 255 248 255 257 253 245 240 237 232 227 223 221 226 231 228 224 223 221 218 217 218 221 223 225 227
286 290 292 292 293 293 292 289 288 286 282 278 274 272 270 267 263 260 258 256 256 261 259 251 241 238 233 227 224 224 227 231 230 229 230 230 226 223 220 220 223 228 232
289 292 292 292 293 292 290 287 284 282 279 277 274 271 268 264 260 256 256 254 257 259 258 255 244 237 233 228 226 226 228 232 232 233 237 241 240 237 231 227 225 227 231
289 293 295 295 294 291 287 284 281 279 278 277 275 270 266 262 258 256 256 255 257 258 258 254 245 237 234 230 228 227 228 233 234 235 240 245 247 246 244 240 236 234 234
Height
5897 5896 5894 5892 5890 5888 5887 5885 5884 5882 5881 5879 5878 5877 5877 5876 5875 5874 5873 5873 5872 5871 5869 5869 5870 5874 5878 5880 5882 5884 5886 5887 5889 5890 5891 5892 5893 5894 5894 5894 5895 5896 5898
5897 5895 5894 5893 5890 5888 5886 5885 5884 5882 5881 5880 5878 5877 5876 5875 5875 5874 5873 5872 5871 5869 5867 5866 5867 5871 5875 5879 5881 5882 5884 5886 5888 5889 5890 5891 5892 5893 5894 5894 5894 5895 5897
5896 5895 5894 5893 5891 5888 5886 5884 5883 5882 5881 5879 5878 5878 5877 5875 5874 5874 5872 5871 5870 5869 5866 5866 5868 5871 5874 5877 5879 5881 5883 5885 5887 5888 5889 5890 5891 5892 5893 5893 5894 5895 5896
5896 5895 5893 5892 5890 5888 5886 5884 5882 5881 5880 5879 5878 5877 5876 5875 5874 5873 5872 5871 5870 5869 5868 5868 5869 5871 5873 5875 5877 5879 5880 5883 5885 5887 5888 5889 5890 5892 5893 5893 5894 5895 5896
5895 5894 5892 5891 5889 5887 5885 5884 5882 5881 5879 5878 5877 5876 5875 5874 5873 5872 5871 5870 5869 5869 5869 5870 5871 5871 5873 5874 5876 5877 5878 5880 5883 5886 5888 5889 5890 5891 5892 5893 5893 5894 5895
5894 5893 5891 5890 5888 5886 5884 5883 5882 5880 5879 5877 5875 5874 5873 5873 5872 5871 5871 5870 5869 5869 5870 5871 5871 5873 5874 5875 5875 5876 5878 5880 5882 5885 5887 5888 5889 5890 5891 5892 5893 5893 5894
5893 5892 5890 5889 5887 5885 5883 5882 5881 5879 5878 5876 5874 5873 5872 5871 5871 5870 5869 5869 5868 5869 5870 5871 5872 5873 5874 5875 5876 5877 5879 5881 5883 5885 5886 5887 5888 5889 5890 5891 5892 5892 5893
5892 5891 5889 5888 5886 5885 5883 5881 5879 5878 5876 5875 5873 5871 5870 5870 5870 5869 5868 5867 5867 5868 5869 5870 5871 5872 5874 5875 5877 5878 5879 5881 5883 5885 5886 5886 5887 5887 5888 5889 5890 5890 5891
5891 5890 5888 5887 5885 5883 5882 5880 5879 5877 5875 5873 5871 5870 5868 5868 5868 5867 5866 5865 5865 5865 5867 5868 5870 5871 5873 5874 5876 5877 5879 5881 5882 5884 5884 5885 5885 5886 5886 5887 5888 5889 5889
5889 5888 5887 5885 5884 5882 5881 5879 5877 5875 5873 5871 5870 5868 5866 5865 5865 5865 5864 5863 5863 5863 5864 5866 5868 5869 5871 5873 5874 5876 5878 5879 5881 5882 5883 5883 5884 5884 5884 5885 5886 5887 5888
5887 5886 5885 5884 5882 5881 5879 5877 5875 5873 5871 5869 5867 5866 5864 5863 5862 5862 5862 5861 5861 5861 5862 5863 5865 5866 5868 5870 5872 5874 5875 5877 5878 5880 5880 5881 5882 5882 5883 5883 5884 5886 5887
5885 5884 5883 5882 5881 5879 5877 5875 5873 5871 5869 5867 5865 5863 5862 5860 5860 5859 5859 5859 5859 5859 5860 5861 5862 5864 5866 5867 5869 5871 5873 5874 5876 5877 5878 5879 5880 5880 5881 5882 5883 5885 5886
5884 5883 5882 5880 5879 5878 5876 5874 5872 5869 5866 5864 5863 5861 5859 5858 5857 5856 5856 5856 5857 5857 5858 5859 5860 5861 5863 5865 5866 5868 5870 5871 5873 5874 5875 5876 5877 5878 5879 5880 5882 5884 5885
5882 5881 5880 5878 5877 5876 5874 5872 5870 5867 5864 5862 5860 5858 5856 5855 5854 5853 5854 5854 5855 5856 5856 5857 5858 5859 5860 5862 5863 5865 5866 5868 5869 5871 5872 5873 5874 5875 5876 5878 5880 5882 5884
5880 5879 5877 5876 5874 5873 5871 5869 5867 5864 5862 5859 5858 5856 5854 5852 5852 5851 5851 5852 5853 5854 5854 5855 5856 5857 5858 5859 5860 5861 5862 5864 5865 5867 5868 5870 5871 5872 5873 5874 5877 5880 5882
5876 5875 5874 5873 5872 5870 5868 5866 5864 5861 5859 5857 5855 5853 5851 5850 5849 5848 5849 5850 5851 5852 5852 5853 5854 5855 5855 5856 5857 5858 5859 5860 5862 5863 5865 5866 5868 5869 5870 5872 5874 5877 5880
5872 5872 5871 5870 5869 5867 5865 5863 5860 5858 5856 5854 5852 5850 5849 5847 5846 5846 5846 5847 5848 5849 5850 5851 5852 5853 5853 5854 5855 5856 5856 5857 5858 5860 5862 5864 5865 5866 5868 5870 5872 5874 5876
5869 5868 5868 5867 5865 5863 5861 5859 5858 5856 5854 5852 5849 5848 5846 5845 5844 5843 5843 5844 5845 5847 5848 5849 5850 5851 5851 5852 5853 5853 5854 5854 5855 5857 5859 5861 5863 5865 5866 5868 5870 5872 5874
5865 5864 5864 5863 5861 5859 5858 5855 5854 5852 5851 5849 5846 5845 5843 5842 5841 5841 5840 5841 5842 5844 5845 5847 5848 5849 5850 5850 5851 5851 5852 5852 5853 5854 5856 5858 5860 5862 5864 5866 5867 5869 5872
5861 5860 5859 5858 5857 5855 5854 5852 5850 5848 5847 5845 5844 5842 5840 5839 5838 5838 5838 5838 5839 5841 5842 5844 5845 5847 5848 5849 5849 5850 5850 5850 5851 5852 5853 5855 5857 5859 5861 5863 5865 5867 5869
5856 5855 5854 5853 5852 5851 5849 5848 5847 5845 5844 5842 5841 5839 5837 5835 5835 5834 5834 5835 5836 5837 5839 5840 5842 5844 5845 5846 5848 5849 5849 5849 5850 5851 5852 5853 5855 5856 5858 5860 5862 5864 5867
5852 5850 5849 5848 5846 5845 5844 5843 5842 5841 5839 5838 5837 5835 5833 5832 5831 5830 5831 5831 5832 5833 5835 5837 5839 5840 5842 5843 5845 5847 5848 5849 5849 5849 5850 5852 5853 5855 5856 5858 5860 5862 5864
5846 5845 5843 5842 5840 5839 5838 5837 5836 5835 5833 5832 5831 5829 5828 5827 5826 5825 5826 5827 5828 5829 5831 5833 5835 5837 5838 5840 5842 5844 5846 5848 5848 5849 5849 5850 5852 5853 5854 5856 5858 5860 5862
5840 5839 5838 5836 5834 5833 5831 5830 5829 5828 5826 5825 5824 5823 5822 5821 5820 5820 5820 5821 5823 5825 5826 5828 5830 5832 5834 5837 5839 5841 5843 5845 5847 5848 5849 5849 5850 5851 5852 5854 5856 5858 5859
5834 5833 5832 5830 5829 5827 5825 5823 5822 5820 5818 5817 5816 5815 5815 5815 5815 5815 5815 5816 5818 5819 5820 5822 5824 5827 5829 5832 5834 5836 5839 5841 5843 5846 5847 5848 5848 5850 5851 5852 5853 5855 5856
5829 5828 5826 5825 5823 5820 5819 5817 5814 5812 5811 5809 5808 5808 5807 5808 5809 5810 5810 5811 5812 5813 5814 5815 5818 5821 5824 5827 5829 5832 5834 5837 5839 5842 5844 5845 5846 5847 5849 5850 5851 5852 5854